Location: Dehesa de la Cepeda
(40.6574°N, 4.3013°W)
Time: 10:14:50
(UTC+00:00)

Transit 2A Rocket - Pass Details

Date: 09 August 2021
Orbit: 586 x 917 km, 66.7° (Epoch: 24 September)

Event Time Altitude Azimuth Distance (km) Brightness Sun altitude
Rises 13:13:35 0° 240° (WSW) 2,863 8.3 62.7°
Reaches altitude 10° 13:16:03 10° 253° (WSW) 1,998 7.6 62.5°
Maximum altitude 13:19:52 26° 311° (NW) 1,278 6.5 62.1°
Drops below altitude 10° 13:23:58 10° 9° (N) 2,158 7.2 61.7°
Sets 13:26:45 0° 22° (NNE) 3,143 7.9 61.4°
